Regional Weather Roundup
Issued by NWS

Home | Current Version | Previous Version | Text Only | Print | Product List | Glossary On
Versions: 1 2 3 4 5 6 7 8 9 10 11 12 13 14 15 16 17 18 19 20 21 22 23 24 25 26 27 28 29 30 31 32 33 34 35 36 37 38 39 40 41 42 43 44 45 46 47 48 49 50
155
ASUS44 KLIX 010411
RWRLA
LOUISIANA WEATHER ROUNDUP
NATIONAL WEATHER SERVICE NEW ORLEANS LA
1100 PM CDT TUE MAR 31 2015

NOTE: "FAIR" INDICATES FEW OR NO CLOUDS BELOW 12,000 FEET WITH NO
      SIGNIFICANT WEATHER AND/OR OBSTRUCTIONS TO VISIBILITY.
      SKY/WX - SKY CONDITION AND SIGNIFICANT WEATHER.
      TMP - AIR TEMPERATURE.    DP   - DEWPOINT TEMPERATURE.
      RH  - RELATIVE HUMIDITY.  PRES - PRESSURE.
      HX  - HEAT INDEX.         WCI  - WIND CHILL INDEX.

*  THESE STATIONS ARE NOT NWS OR FAA STATIONS AND ARE NOT UNDER
   NWS QUALITY CONTROL.

LAZ040-048-061>063-065-066-069-010500-
SOUTHEAST LOUISIANA

CITY           SKY/WX    TMP DP  RH WIND       PRES   REMARKS
N.O. AUDUBON     N/A     67  67 100 MISG        N/A
N.O. INTL ARPT CLEAR     69  61  75 SW10      30.07S
N.O. LAKEFRONT CLEAR     72  63  73 SW6       30.07S
SLIDELL        CLEAR     70  63  78 SW3       30.06S
BATON ROUGE    MOCLDY    68  61  78 SW9       30.05S
BOOTHVILLE     CLEAR     72  67  84 SW8       30.09S
BELLE CHASSE   PTCLDY    61  59  93 SW3       30.07S
BOGALUSA*        N/A     69  59  69 SW7       30.06S
GALLIANO*      PTCLDY    67  64  91 CALM      30.08S
NEW ROADS*     FAIR      67  58  72 S6        30.05S
GONZALES*      FAIR      64  64  99 CALM      30.06S
HAMMOND*       PTCLDY    66  59  77 S5        30.07F
HOUMA*         PTCLDY    64  63  99 CALM      30.07S
PORT FOURCHON* CLEAR     73  66  78 SW8       30.11S

$$

LAZ041-044-053-054-010500-
SOUTHWEST LOUISIANA

CITY           SKY/WX    TMP DP  RH WIND       PRES   REMARKS
LAKE CHARLES   MOCLDY    69  66  90 S5        30.03S
LAFAYETTE      PTCLDY    66  62  87 S6        30.05R
PATTERSON      CLEAR     64  63  94 CALM      30.08S
SALT POINT       N/A     66  65  96 CALM      30.05S
NEW IBERIA     PTCLDY    65  62  90 S6        30.06R
CHENAULT AIRPK MOCLDY    64  63  97 CALM      30.04R

$$

LAZ027-028-010500-
CENTRAL LOUISIANA

CITY           SKY/WX    TMP DP  RH WIND       PRES   REMARKS
FORT POLK      CLEAR     68  63  83 S7        30.01S FOG
ALEXANDRIA INT MOCLDY    68  62  81 S9        30.01R
ALEXANDRIA     PTCLDY    70  61  73 SW6       30.02R

$$

LAZ001-002-010500-
NORTHWEST LOUISIANA

CITY           SKY/WX    TMP DP  RH WIND       PRES   REMARKS
SHREVEPORT     MOCLDY    64  58  80 S3        29.96S
BARKSDALE AFB  PTCLDY    63  59  86 SE3       29.96S
DTN SHREVEPORT PTCLDY    64  60  87 CALM      29.96S

$$

LAZ014-016-010500-
NORTHEAST LOUISIANA

CITY           SKY/WX    TMP DP  RH WIND       PRES   REMARKS
MONROE         CLEAR     66  61  84 S5        29.99R
TALLULAH       PTCLDY    72  57  59 SW6       30.00R

$$




USA.gov is the U.S. government's official web portal to all federal, state and local government web resources and services.